SL-8 DEB

基本信息
目录编号:
9016
目录名称:
SL-8 DEB
国际标识:
1976-067C
轨道中心:
EARTH
物体状态:
在轨
发射日期:
1976-07-08 UTC
轨道信息
数据来源: 国际轨道数据
星历时间: 2026-09-15T23:22:20+0800
半长轴: 7915.705km
偏心率: 0.0705756
轨道倾角: 65.867°
近地点辐角: 221.863°
升交点赤经: 130.007°
平近点角: 163.815°
近地点: 978.912km
远地点: 2096.224km
周期: 116.814分钟
每日圈数: 12.327312
详细信息
发射场:
PKMTR
轨道高度:
LEO
数据来源:
AOE Integration Group
参考系:
TEME
时间系统:
UTC
历元类型:
SGP4
2D轨道图
3D轨道图
轨道高度分析图
轨道倾角分析图
轨道综合分析图
查看轨道综合分析图